Weather History for Florala, AL

Change the Weather History Date:

Tuesday, May 8, 2012

  Actual Average (KCEW) Record (KCEW)
Temperature  
Mean Temperature 78 °F -  
Max Temperature 89 °F 82 °F 93 °F (1949)
Min Temperature 68 °F 58 °F 39 °F (2007)
Cooling Degree Days 14    
Growing Degree Days 28 (Base 50)    
Moisture  
Dew Point 68 °F    
Average Humidity 78    
Maximum Humidity 90    
Minimum Humidity 48    
Precipitation  
Precipitation 0.19 in - - ()
Sea Level Pressure  
Sea Level Pressure 29.91 in    
Wind  
Wind Speed 2 mph (East)    
Max Wind Speed 15 mph    
Max Gust Speed -    
Visibility 7 miles    
Events Rain , Thunderstorm    
Averages and records for this station are not official NWS values.
T = Trace of Precipitation, MM = Missing Value Source: NWS Daily Summary

Daily Weather History Graph

Daily Weather History Graph

Search for Another Location

Airport:

Trip Planner

Search our weather history database for the weather conditions in past years. The results will help you decide how hot, cold, wet, or windy it might be!

Date:

Astronomy

May. 08, 2012 Rise Set
Actual Time 5:54 AM CDT 7:29 PM CDT
Civil Twilight 5:28 AM CDT 7:55 PM CDT
Nautical Twilight 4:57 AM CDT 8:26 PM CDT
Astronomical Twilight 4:24 AM CDT 8:59 PM CDT
Moon 10:34 PM CDT (5/8) 8:07 AM CDT (5/8)
Length of Visible Light 14h 27m
Length of Day
13h 34m
Waning Gibbous, 90% of the Moon is Illuminated
May 8
Waning Gibbous
May 12
Last Quarter
May 20
New
May 28
First Quarter
Jun 4
Full

Hourly Weather History & Observations

Time (CDT) Temp. Heat Index Dew Point Humidity Pressure Visibility Wind Dir Wind Speed Gust Speed Precip Events Conditions
12:58 AM 71.1 °F - 66.9 °F 87% 29.89 in 9.0 mi SE 3.5 mph - N/A   Clear
1:58 AM 71.1 °F - 66.9 °F 87% 29.90 in 9.0 mi Calm Calm - N/A   Clear
2:58 AM 71.1 °F - 66.9 °F 87% 29.90 in 8.0 mi Calm Calm - N/A   Clear
3:58 AM 70.0 °F - 66.0 °F 87% 29.90 in 9.0 mi SW 3.5 mph - N/A   Clear
4:58 AM 70.0 °F - 66.0 °F 87% 29.91 in 6.0 mi Calm Calm - N/A   Clear
5:28 AM 69.1 °F - 64.9 °F 87% 29.91 in 1.8 mi Calm Calm - N/A   Clear
5:35 AM 70.0 °F - 66.0 °F 87% 29.92 in 1.2 mi Calm Calm - N/A   Partly Cloudy
5:43 AM 68.0 °F - 64.0 °F 87% 29.92 in 0.8 mi Calm Calm - N/A   Mostly Cloudy
5:56 AM 70.0 °F - 66.0 °F 87% 29.92 in 1.5 mi Calm Calm - N/A   Mostly Cloudy
5:58 AM 70.0 °F - 66.0 °F 87% 29.91 in 1.5 mi Calm Calm - N/A   Mostly Cloudy
6:06 AM 70.0 °F - 66.0 °F 87% 29.92 in 2.5 mi Calm Calm - N/A   Mostly Cloudy
6:10 AM 70.0 °F - 66.9 °F 90% 29.92 in 2.5 mi Calm Calm - N/A   Scattered Clouds
6:24 AM 71.1 °F - 66.9 °F 87% 29.92 in 3.0 mi Calm Calm - N/A   Clear
6:58 AM 73.0 °F - 69.1 °F 87% 29.92 in 6.0 mi Calm Calm - N/A   Clear
7:58 AM 77.0 °F - 70.0 °F 79% 29.92 in 10.0 mi SSW 4.6 mph - N/A   Clear
8:58 AM 80.1 °F 82.7 °F 68.0 °F 67% 29.92 in 10.0 mi Calm Calm - N/A   Clear
9:58 AM 82.9 °F 84.4 °F 64.0 °F 53% 29.92 in 10.0 mi South 3.5 mph - N/A   Clear
10:58 AM 84.0 °F 85.8 °F 64.9 °F 53% 29.93 in 10.0 mi Calm Calm - N/A   Mostly Cloudy
11:58 AM 89.1 °F 92.1 °F 66.9 °F 48% 29.91 in 10.0 mi SW 5.8 mph - N/A   Partly Cloudy
12:32 PM 86.0 °F 87.6 °F 64.9 °F 49% 29.91 in 10.0 mi SW 4.6 mph - N/A Thunderstorm Mostly Cloudy
12:58 PM 75.0 °F - 66.9 °F 76% 29.93 in 1.8 mi Variable 4.6 mph - 0.08 in Rain , Thunderstorm Heavy Thunderstorms and Rain
1:05 PM 73.9 °F - 68.0 °F 82% 29.94 in 1.5 mi North 11.5 mph - 0.08 in Rain , Thunderstorm Heavy Thunderstorms and Rain
1:13 PM 73.9 °F - 68.0 °F 82% 29.95 in 3.0 mi NNE 15.0 mph - 0.10 in Rain , Thunderstorm Thunderstorms and Rain
1:18 PM 73.4 °F - 66.2 °F 78% 29.95 in 6.0 mi NNE 12.7 mph - 0.10 in Rain , Thunderstorm Light Thunderstorms and Rain
1:30 PM 73.9 °F - 68.0 °F 82% 29.94 in 10.0 mi ENE 11.5 mph - 0.10 in Rain , Thunderstorm Light Thunderstorms and Rain
1:36 PM 73.9 °F - 68.0 °F 82% 29.94 in 8.0 mi ENE 6.9 mph - 0.11 in Rain , Thunderstorm Thunderstorms and Rain
1:42 PM 73.9 °F - 68.0 °F 82% 29.93 in 7.0 mi NE 5.8 mph - 0.11 in Rain , Thunderstorm Thunderstorms and Rain
1:58 PM 77.0 °F - 70.0 °F 79% 29.91 in 10.0 mi ENE 6.9 mph - 0.11 in Thunderstorm Scattered Clouds
2:29 PM 81.0 °F 84.1 °F 69.1 °F 67% 29.92 in 10.0 mi NNE 8.1 mph - N/A   Scattered Clouds
2:58 PM 80.1 °F 82.7 °F 68.0 °F 67% 29.91 in 10.0 mi SSE 5.8 mph - N/A   Clear
3:58 PM 80.1 °F 82.3 °F 66.9 °F 64% 29.87 in 10.0 mi Calm Calm - N/A   Clear
4:58 PM 82.9 °F 85.8 °F 68.0 °F 60% 29.86 in 10.0 mi Calm Calm - N/A   Partly Cloudy
5:58 PM 82.0 °F 84.5 °F 66.9 °F 60% 29.86 in 10.0 mi Calm Calm - N/A   Mostly Cloudy
6:58 PM 79.0 °F - 71.1 °F 77% 29.86 in 10.0 mi Calm Calm - N/A   Partly Cloudy
7:58 PM 77.0 °F - 70.0 °F 79% 29.88 in 10.0 mi Calm Calm - N/A   Partly Cloudy
8:58 PM 75.9 °F - 70.0 °F 82% 29.90 in 10.0 mi Calm Calm - N/A   Clear
9:58 PM 75.0 °F - 70.0 °F 84% 29.90 in 10.0 mi Calm Calm - N/A   Clear
10:32 PM 75.0 °F - 70.0 °F 84% 29.92 in 10.0 mi Calm Calm - N/A   Mostly Cloudy
10:37 PM 75.0 °F - 69.1 °F 82% 29.92 in 10.0 mi Calm Calm - N/A   Scattered Clouds
10:58 PM 75.0 °F - 69.1 °F 82% 29.91 in 10.0 mi Variable 3.5 mph - N/A   Partly Cloudy
11:58 PM 73.9 °F - 69.1 °F 85% 29.89 in 10.0 mi Calm Calm - N/A   Partly Cloudy